Time,TemperatureF,DewpointF,PressureIn,WindDirection,WindDirectionDegrees,WindSpeedMPH,WindSpeedGustMPH,Humidity,HourlyPrecipIn,Conditions,Clouds,dailyrainin,SoftwareType,DateUTC
2013-01-07 00:01:00,19.8,17.4,30.35,NW,315,0.0,0.0,91,0.00,,,0.00,WUHU21636XXSP,2013-01-07 06:01:00,
2013-01-07 00:06:00,19.4,17.1,30.35,NW,315,0.0,0.0,91,0.00,,,0.00,WUHU21636XXSP,2013-01-07 06:06:00,
2013-01-07 00:11:00,19.6,17.2,30.35,NW,315,0.0,0.0,91,0.00,,,0.00,WUHU21636XXSP,2013-01-07 06:11:00,
2013-01-07 00:16:00,19.9,17.8,30.35,NW,315,0.0,0.0,92,0.00,,,0.00,WUHU21636XXSP,2013-01-07 06:16:00,
2013-01-07 00:21:00,20.1,18.0,30.35,NW,315,0.0,0.0,92,0.00,,,0.00,WUHU21636XXSP,2013-01-07 06:21:00,
2013-01-07 00:26:00,20.1,18.0,30.35,NW,315,0.0,0.0,92,0.00,,,0.00,WUHU21636XXSP,2013-01-07 06:26:00,
2013-01-07 00:31:00,20.1,18.0,30.35,NW,315,0.0,0.0,92,0.00,,,0.00,WUHU21636XXSP,2013-01-07 06:31:00,
2013-01-07 00:36:00,20.1,18.0,30.36,NW,315,0.0,0.0,92,0.00,,,0.00,WUHU21636XXSP,2013-01-07 06:36:00,
2013-01-07 00:41:00,20.3,18.1,30.36,WNW,292,0.0,0.0,92,0.00,,,0.00,WUHU21636XXSP,2013-01-07 06:41:00,
2013-01-07 00:46:00,20.5,18.3,30.35,WNW,292,0.0,0.0,92,0.00,,,0.00,WUHU21636XXSP,2013-01-07 06:46:00,
2013-01-07 00:51:00,20.7,18.5,30.36,WNW,292,0.0,0.0,92,0.00,,,0.00,WUHU21636XXSP,2013-01-07 06:51:00,
2013-01-07 00:56:00,20.7,18.5,30.35,WNW,292,0.0,0.0,92,0.00,,,0.00,WUHU21636XXSP,2013-01-07 06:56:00,
2013-01-07 01:01:00,20.7,18.5,30.36,WNW,292,0.0,0.0,92,0.00,,,0.00,WUHU21636XXSP,2013-01-07 07:01:00,
2013-01-07 01:06:00,20.8,18.7,30.35,WNW,292,0.0,0.0,92,0.00,,,0.00,WUHU21636XXSP,2013-01-07 07:06:00,
2013-01-07 01:11:00,20.8,18.7,30.35,WNW,292,0.0,0.0,92,0.00,,,0.00,WUHU21636XXSP,2013-01-07 07:11:00,
2013-01-07 01:16:00,20.8,18.7,30.35,WNW,292,0.0,0.0,92,0.00,,,0.00,WUHU21636XXSP,2013-01-07 07:16:00,
2013-01-07 01:21:00,20.7,18.5,30.35,WNW,292,0.0,0.0,92,0.00,,,0.00,WUHU21636XXSP,2013-01-07 07:21:00,
2013-01-07 01:26:00,20.7,18.5,30.35,WNW,292,0.0,0.0,92,0.00,,,0.00,WUHU21636XXSP,2013-01-07 07:26:00,
2013-01-07 01:31:00,20.5,18.3,30.36,WNW,292,0.0,0.0,92,0.00,,,0.00,WUHU21636XXSP,2013-01-07 07:31:00,
2013-01-07 01:36:00,20.1,18.0,30.36,WNW,292,0.0,0.0,92,0.00,,,0.00,WUHU21636XXSP,2013-01-07 07:36:00,
2013-01-07 01:41:00,20.1,18.0,30.36,WNW,292,0.0,0.0,92,0.00,,,0.00,WUHU21636XXSP,2013-01-07 07:41:00,
2013-01-07 01:46:00,19.8,17.4,30.37,WNW,292,0.0,0.0,91,0.00,,,0.00,WUHU21636XXSP,2013-01-07 07:46:00,
2013-01-07 01:51:00,19.9,17.8,30.37,WNW,292,0.0,0.0,92,0.00,,,0.00,WUHU21636XXSP,2013-01-07 07:51:00,
2013-01-07 01:56:00,20.1,18.0,30.37,WNW,292,0.0,0.0,92,0.00,,,0.00,WUHU21636XXSP,2013-01-07 07:56:00,
2013-01-07 02:01:00,20.1,18.0,30.37,WNW,292,0.0,0.0,92,0.00,,,0.00,WUHU21636XXSP,2013-01-07 08:01:00,
2013-01-07 02:06:00,19.8,17.6,30.37,WNW,292,0.0,0.0,92,0.00,,,0.00,WUHU21636XXSP,2013-01-07 08:06:00,
2013-01-07 02:11:00,19.9,17.8,30.37,WNW,292,0.0,0.0,92,0.00,,,0.00,WUHU21636XXSP,2013-01-07 08:11:00,
2013-01-07 02:16:00,19.9,17.8,30.37,WNW,292,0.0,0.0,92,0.00,,,0.00,WUHU21636XXSP,2013-01-07 08:16:00,
2013-01-07 02:21:00,20.1,18.0,30.37,WNW,292,0.0,0.0,92,0.00,,,0.00,WUHU21636XXSP,2013-01-07 08:21:00,
2013-01-07 02:26:00,20.1,18.0,30.37,WNW,292,0.0,0.0,92,0.00,,,0.00,WUHU21636XXSP,2013-01-07 08:26:00,
2013-01-07 02:32:00,20.1,18.0,30.37,WNW,292,0.0,0.0,92,0.00,,,0.00,WUHU21636XXSP,2013-01-07 08:32:00,
2013-01-07 02:37:00,19.9,17.8,30.37,WNW,292,0.0,0.0,92,0.00,,,0.00,WUHU21636XXSP,2013-01-07 08:37:00,
2013-01-07 02:42:00,20.1,18.0,30.37,WNW,292,0.0,0.0,92,0.00,,,0.00,WUHU21636XXSP,2013-01-07 08:42:00,
2013-01-07 02:47:00,20.1,18.0,30.37,WNW,292,0.0,0.0,92,0.00,,,0.00,WUHU21636XXSP,2013-01-07 08:47:00,
2013-01-07 02:52:00,20.1,18.0,30.36,WNW,292,0.0,0.0,92,0.00,,,0.00,WUHU21636XXSP,2013-01-07 08:52:00,
2013-01-07 02:57:00,20.3,18.1,30.36,WNW,292,0.0,0.0,92,0.00,,,0.00,WUHU21636XXSP,2013-01-07 08:57:00,
2013-01-07 03:02:00,20.1,18.0,30.36,WNW,292,0.0,0.0,92,0.00,,,0.00,WUHU21636XXSP,2013-01-07 09:02:00,
2013-01-07 03:07:00,20.1,18.0,30.36,WNW,292,0.0,0.0,92,0.00,,,0.00,WUHU21636XXSP,2013-01-07 09:07:00,
2013-01-07 03:11:00,19.8,17.6,30.37,WNW,292,0.0,0.0,92,0.00,,,0.00,WUHU21636XXSP,2013-01-07 09:11:00,
2013-01-07 03:17:00,19.9,17.8,30.37,WNW,292,0.0,0.0,92,0.00,,,0.00,WUHU21636XXSP,2013-01-07 09:17:00,
2013-01-07 03:22:00,19.9,17.8,30.37,WNW,292,0.0,0.0,92,0.00,,,0.00,WUHU21636XXSP,2013-01-07 09:22:00,
2013-01-07 03:27:00,19.8,17.6,30.37,WNW,292,0.0,0.0,92,0.00,,,0.00,WUHU21636XXSP,2013-01-07 09:27:00,
2013-01-07 03:32:00,19.8,17.6,30.37,WNW,292,0.0,0.0,92,0.00,,,0.00,WUHU21636XXSP,2013-01-07 09:32:00,
2013-01-07 03:37:00,19.8,17.6,30.37,WNW,292,0.0,0.0,92,0.00,,,0.00,WUHU21636XXSP,2013-01-07 09:37:00,
2013-01-07 03:41:00,19.6,17.4,30.36,West,270,0.0,0.0,92,0.00,,,0.00,WUHU21636XXSP,2013-01-07 09:41:00,
2013-01-07 03:47:00,19.8,17.6,30.37,South,180,0.0,0.0,92,0.00,,,0.00,WUHU21636XXSP,2013-01-07 09:47:00,
2013-01-07 03:51:00,20.1,18.0,30.37,South,180,0.0,0.0,92,0.00,,,0.00,WUHU21636XXSP,2013-01-07 09:51:00,
2013-01-07 03:56:00,20.7,18.9,30.37,South,180,0.0,0.0,93,0.00,,,0.00,WUHU21636XXSP,2013-01-07 09:56:00,
2013-01-07 04:02:00,20.8,19.0,30.37,South,180,0.0,0.0,93,0.00,,,0.00,WUHU21636XXSP,2013-01-07 10:02:00,
2013-01-07 04:07:00,20.8,19.0,30.37,South,180,0.0,0.0,93,0.00,,,0.00,WUHU21636XXSP,2013-01-07 10:07:00,
2013-01-07 04:11:00,21.0,18.9,30.37,South,180,0.0,0.0,92,0.00,,,0.00,WUHU21636XXSP,2013-01-07 10:11:00,
2013-01-07 04:16:00,20.8,18.7,30.37,South,180,0.0,0.0,92,0.00,,,0.00,WUHU21636XXSP,2013-01-07 10:16:00,
2013-01-07 04:21:00,20.8,18.7,30.37,South,180,0.0,0.0,92,0.00,,,0.00,WUHU21636XXSP,2013-01-07 10:21:00,
2013-01-07 04:26:00,20.8,18.7,30.38,South,180,0.0,0.0,92,0.00,,,0.00,WUHU21636XXSP,2013-01-07 10:26:00,
2013-01-07 04:31:00,21.4,19.2,30.38,South,180,0.0,0.0,92,0.00,,,0.00,WUHU21636XXSP,2013-01-07 10:31:00,
2013-01-07 04:36:00,22.3,20.1,30.38,South,180,0.0,0.0,92,0.00,,,0.00,WUHU21636XXSP,2013-01-07 10:36:00,
2013-01-07 04:42:00,22.8,20.5,30.37,South,180,0.0,0.0,91,0.00,,,0.00,WUHU21636XXSP,2013-01-07 10:42:00,
2013-01-07 04:46:00,22.6,20.3,30.37,South,180,0.0,0.0,91,0.00,,,0.00,WUHU21636XXSP,2013-01-07 10:46:00,
2013-01-07 04:51:00,22.8,20.5,30.37,South,180,2.9,2.9,91,0.00,,,0.00,WUHU21636XXSP,2013-01-07 10:51:00,
2013-01-07 04:56:00,22.8,20.5,30.37,SSE,157,0.0,2.9,91,0.00,,,0.00,WUHU21636XXSP,2013-01-07 10:56:00,
2013-01-07 05:01:00,23.0,20.5,30.37,South,180,0.0,2.9,90,0.00,,,0.00,WUHU21636XXSP,2013-01-07 11:01:00,
2013-01-07 05:06:00,23.0,20.5,30.37,South,180,0.0,0.0,90,0.00,,,0.00,WUHU21636XXSP,2013-01-07 11:06:00,
2013-01-07 05:11:00,22.8,20.3,30.37,SSW,202,0.0,0.4,90,0.00,,,0.00,WUHU21636XXSP,2013-01-07 11:11:00,
2013-01-07 05:16:00,23.2,20.7,30.37,SSW,202,0.0,0.4,90,0.00,,,0.00,WUHU21636XXSP,2013-01-07 11:16:00,
2013-01-07 05:21:00,23.2,20.7,30.37,South,180,0.0,2.0,89,0.00,,,0.00,WUHU21636XXSP,2013-01-07 11:21:00,
2013-01-07 05:27:00,23.4,20.5,30.37,South,180,1.7,7.1,89,0.00,,,0.00,WUHU21636XXSP,2013-01-07 11:27:00,
2013-01-07 05:32:00,23.4,20.5,30.37,South,180,0.0,7.1,89,0.00,,,0.00,WUHU21636XXSP,2013-01-07 11:32:00,
2013-01-07 05:37:00,23.7,20.8,30.37,South,180,0.0,2.2,89,0.00,,,0.00,WUHU21636XXSP,2013-01-07 11:37:00,
2013-01-07 05:42:00,23.7,20.8,30.36,SSE,157,0.0,2.2,88,0.00,,,0.00,WUHU21636XXSP,2013-01-07 11:42:00,
2013-01-07 05:47:00,23.7,20.7,30.36,South,180,0.0,6.2,88,0.00,,,0.00,WUHU21636XXSP,2013-01-07 11:47:00,
2013-01-07 05:52:00,23.7,20.7,30.36,South,180,3.1,6.2,88,0.00,,,0.00,WUHU21636XXSP,2013-01-07 11:52:00,
2013-01-07 05:57:00,23.7,20.7,30.36,South,180,3.3,3.3,88,0.00,,,0.00,WUHU21636XXSP,2013-01-07 11:57:00,
2013-01-07 06:02:00,23.9,20.8,30.36,SSW,202,0.0,3.3,88,0.00,,,0.00,WUHU21636XXSP,2013-01-07 12:02:00,
2013-01-07 06:06:00,23.9,20.8,30.36,SSW,202,0.0,3.3,88,0.00,,,0.00,WUHU21636XXSP,2013-01-07 12:06:00,
2013-01-07 06:11:00,23.9,20.5,30.37,South,180,2.6,6.9,87,0.00,,,0.00,WUHU21636XXSP,2013-01-07 12:11:00,
2013-01-07 06:16:00,24.1,20.7,30.36,SSE,157,0.0,6.9,87,0.00,,,0.00,WUHU21636XXSP,2013-01-07 12:16:00,
2013-01-07 06:21:00,24.3,20.8,30.36,South,180,4.4,4.4,87,0.00,,,0.00,WUHU21636XXSP,2013-01-07 12:21:00,
2013-01-07 06:26:00,24.3,20.8,30.37,South,180,0.0,4.4,87,0.00,,,0.00,WUHU21636XXSP,2013-01-07 12:26:00,
2013-01-07 06:31:00,24.3,20.8,30.36,SSE,157,0.0,4.4,87,0.00,,,0.00,WUHU21636XXSP,2013-01-07 12:31:00,
2013-01-07 06:36:00,24.1,20.7,30.36,South,180,0.0,0.4,87,0.00,,,0.00,WUHU21636XXSP,2013-01-07 12:36:00,
2013-01-07 06:42:00,24.3,20.8,30.36,South,180,0.0,5.3,87,0.00,,,0.00,WUHU21636XXSP,2013-01-07 12:42:00,
2013-01-07 06:46:00,24.4,21.0,30.36,South,180,0.0,5.3,87,0.00,,,0.00,WUHU21636XXSP,2013-01-07 12:46:00,
2013-01-07 06:51:00,24.3,20.8,30.36,SSE,157,0.0,1.7,87,0.00,,,0.00,WUHU21636XXSP,2013-01-07 12:51:00,
2013-01-07 06:56:00,24.3,20.8,30.36,South,180,1.5,2.4,87,0.00,,,0.00,WUHU21636XXSP,2013-01-07 12:56:00,
2013-01-07 07:01:00,24.4,21.0,30.36,South,180,0.0,3.5,87,0.00,,,0.00,WUHU21636XXSP,2013-01-07 13:01:00,
2013-01-07 07:06:00,24.4,21.0,30.35,SSW,202,3.3,3.5,87,0.00,,,0.00,WUHU21636XXSP,2013-01-07 13:06:00,
2013-01-07 07:11:00,24.4,21.0,30.35,South,180,0.0,3.5,87,0.00,,,0.00,WUHU21636XXSP,2013-01-07 13:11:00,
2013-01-07 07:16:00,24.6,21.2,30.35,South,180,0.0,3.5,87,0.00,,,0.00,WUHU21636XXSP,2013-01-07 13:16:00,
2013-01-07 07:21:00,24.4,21.0,30.35,SE,135,0.0,3.5,87,0.00,,,0.00,WUHU21636XXSP,2013-01-07 13:21:00,
2013-01-07 07:26:00,24.1,20.7,30.36,SE,135,0.0,0.0,87,0.00,,,0.00,WUHU21636XXSP,2013-01-07 13:26:00,
2013-01-07 07:31:00,23.5,20.5,30.36,SSE,157,0.0,0.0,88,0.00,,,0.00,WUHU21636XXSP,2013-01-07 13:31:00,
2013-01-07 07:37:00,23.4,20.3,30.35,SSE,157,0.0,0.0,88,0.00,,,0.00,WUHU21636XXSP,2013-01-07 13:37:00,
2013-01-07 07:42:00,23.2,20.1,30.35,SSE,157,0.0,0.0,89,0.00,,,0.00,WUHU21636XXSP,2013-01-07 13:42:00,
2013-01-07 07:47:00,23.2,20.1,30.35,SSE,157,0.0,0.0,89,0.00,,,0.00,WUHU21636XXSP,2013-01-07 13:47:00,
2013-01-07 07:52:00,23.4,20.5,30.35,SSE,157,0.0,0.0,89,0.00,,,0.00,WUHU21636XXSP,2013-01-07 13:52:00,
2013-01-07 07:57:00,23.7,20.8,30.35,South,180,0.0,0.0,89,0.00,,,0.00,WUHU21636XXSP,2013-01-07 13:57:00,
2013-01-07 08:02:00,27.1,23.7,30.35,South,180,0.0,0.0,87,0.00,,,0.00,WUHU21636XXSP,2013-01-07 14:02:00,
2013-01-07 08:07:00,28.9,24.3,30.35,SSW,202,0.0,0.0,83,0.00,,,0.00,WUHU21636XXSP,2013-01-07 14:07:00,
2013-01-07 08:12:00,28.8,23.9,30.35,SSE,157,0.0,4.2,82,0.00,,,0.00,WUHU21636XXSP,2013-01-07 14:12:00,
2013-01-07 08:17:00,29.3,24.4,30.35,SSW,202,7.6,8.2,82,0.00,,,0.00,WUHU21636XXSP,2013-01-07 14:17:00,
2013-01-07 08:22:00,29.7,24.4,30.36,SSE,157,0.2,13.1,81,0.00,,,0.00,WUHU21636XXSP,2013-01-07 14:22:00,
2013-01-07 08:27:00,30.9,25.2,30.35,SSW,202,3.3,13.1,79,0.00,,,0.00,WUHU21636XXSP,2013-01-07 14:27:00,
2013-01-07 08:32:00,30.6,25.2,30.35,South,180,4.4,14.9,80,0.00,,,0.00,WUHU21636XXSP,2013-01-07 14:32:00,
2013-01-07 08:37:00,31.3,25.2,30.35,SSE,157,3.1,14.9,78,0.00,,,0.00,WUHU21636XXSP,2013-01-07 14:37:00,
2013-01-07 08:42:00,31.1,25.3,30.35,South,180,3.5,14.0,79,0.00,,,0.00,WUHU21636XXSP,2013-01-07 14:42:00,
2013-01-07 08:47:00,31.3,25.5,30.35,SSW,202,9.1,14.9,79,0.00,,,0.00,WUHU21636XXSP,2013-01-07 14:47:00,
2013-01-07 08:52:00,30.9,25.2,30.35,South,180,4.2,14.9,79,0.00,,,0.00,WUHU21636XXSP,2013-01-07 14:52:00,
2013-01-07 08:57:00,31.3,24.8,30.36,SSW,202,5.3,15.8,77,0.00,,,0.00,WUHU21636XXSP,2013-01-07 14:57:00,
2013-01-07 09:02:00,32.0,25.9,30.36,SSE,157,4.0,18.3,78,0.00,,,0.00,WUHU21636XXSP,2013-01-07 15:02:00,
2013-01-07 09:07:00,32.9,26.4,30.35,South,180,2.9,18.3,77,0.00,,,0.00,WUHU21636XXSP,2013-01-07 15:07:00,
2013-01-07 09:12:00,34.0,26.4,30.35,SE,135,0.0,14.5,74,0.00,,,0.00,WUHU21636XXSP,2013-01-07 15:12:00,
2013-01-07 09:17:00,33.6,26.4,30.35,South,180,1.1,12.7,75,0.00,,,0.00,WUHU21636XXSP,2013-01-07 15:17:00,
2013-01-07 09:22:00,35.1,27.1,30.35,SSE,157,8.9,12.7,73,0.00,,,0.00,WUHU21636XXSP,2013-01-07 15:22:00,
2013-01-07 09:27:00,35.2,27.0,30.35,SSE,157,1.3,13.8,72,0.00,,,0.00,WUHU21636XXSP,2013-01-07 15:27:00,
2013-01-07 09:32:00,35.2,26.6,30.35,SW,225,10.5,16.3,71,0.00,,,0.00,WUHU21636XXSP,2013-01-07 15:32:00,
2013-01-07 09:37:00,34.7,26.4,30.35,SSW,202,10.5,16.7,72,0.00,,,0.00,WUHU21636XXSP,2013-01-07 15:37:00,
2013-01-07 09:42:00,35.1,26.4,30.35,SSW,202,6.4,18.3,71,0.00,,,0.00,WUHU21636XXSP,2013-01-07 15:42:00,
2013-01-07 09:47:00,34.9,26.6,30.35,South,180,2.4,18.3,72,0.00,,,0.00,WUHU21636XXSP,2013-01-07 15:47:00,
2013-01-07 09:52:00,36.7,27.0,30.35,South,180,11.4,21.9,68,0.00,,,0.00,WUHU21636XXSP,2013-01-07 15:52:00,
2013-01-07 09:57:00,37.0,27.3,30.35,SSE,157,10.5,21.9,68,0.00,,,0.00,WUHU21636XXSP,2013-01-07 15:57:00,
2013-01-07 10:02:00,36.1,27.3,30.35,SW,225,6.7,18.5,70,0.00,,,0.00,WUHU21636XXSP,2013-01-07 16:02:00,
2013-01-07 10:07:00,37.6,27.9,30.35,SSE,157,1.1,17.0,68,0.00,,,0.00,WUHU21636XXSP,2013-01-07 16:07:00,
2013-01-07 10:12:00,39.4,29.1,30.34,WSW,247,2.2,14.0,67,0.00,,,0.00,WUHU21636XXSP,2013-01-07 16:12:00,
2013-01-07 10:17:00,39.2,28.6,30.34,SE,135,4.6,13.1,66,0.00,,,0.00,WUHU21636XXSP,2013-01-07 16:17:00,
2013-01-07 10:22:00,39.2,28.6,30.34,South,180,5.8,15.2,66,0.00,,,0.00,WUHU21636XXSP,2013-01-07 16:22:00,
2013-01-07 10:27:00,38.8,28.6,30.34,SSW,202,6.4,16.7,67,0.00,,,0.00,WUHU21636XXSP,2013-01-07 16:27:00,
2013-01-07 10:32:00,40.6,29.7,30.34,SW,225,0.0,20.5,65,0.00,,,0.00,WUHU21636XXSP,2013-01-07 16:32:00,
2013-01-07 10:37:00,40.3,29.3,30.34,SSE,157,2.2,20.5,65,0.00,,,0.00,WUHU21636XXSP,2013-01-07 16:37:00,
2013-01-07 10:42:00,41.0,29.7,30.33,SSW,202,2.0,14.7,64,0.00,,,0.00,WUHU21636XXSP,2013-01-07 16:42:00,
2013-01-07 10:47:00,41.0,28.9,30.33,SSE,157,1.5,15.2,62,0.00,,,0.00,WUHU21636XXSP,2013-01-07 16:47:00,
2013-01-07 10:52:00,42.6,29.7,30.32,South,180,6.2,21.0,60,0.00,,,0.00,WUHU21636XXSP,2013-01-07 16:52:00,
2013-01-07 10:57:00,41.4,29.7,30.32,SE,135,4.0,21.0,63,0.00,,,0.00,WUHU21636XXSP,2013-01-07 16:57:00,
2013-01-07 11:02:00,41.9,28.9,30.32,SE,135,8.0,21.4,60,0.00,,,0.00,WUHU21636XXSP,2013-01-07 17:02:00,
2013-01-07 11:07:00,40.8,29.1,30.31,South,180,9.6,21.4,63,0.00,,,0.00,WUHU21636XXSP,2013-01-07 17:07:00,
2013-01-07 11:12:00,41.2,29.5,30.31,SSW,202,5.3,23.9,63,0.00,,,0.00,WUHU21636XXSP,2013-01-07 17:12:00,
2013-01-07 11:17:00,42.6,29.1,30.30,SW,225,6.7,23.9,59,0.00,,,0.00,WUHU21636XXSP,2013-01-07 17:17:00,
2013-01-07 11:22:00,41.9,28.9,30.30,SSW,202,7.8,16.1,60,0.00,,,0.00,WUHU21636XXSP,2013-01-07 17:22:00,
2013-01-07 11:27:00,43.3,29.8,30.30,SW,225,4.0,16.1,59,0.00,,,0.00,WUHU21636XXSP,2013-01-07 17:27:00,
2013-01-07 11:32:00,43.3,29.8,30.30,South,180,9.6,16.7,59,0.00,,,0.00,WUHU21636XXSP,2013-01-07 17:32:00,
2013-01-07 11:37:00,42.6,29.1,30.30,South,180,11.4,22.8,59,0.00,,,0.00,WUHU21636XXSP,2013-01-07 17:37:00,
2013-01-07 11:42:00,42.3,28.4,30.29,South,180,6.0,22.8,58,0.00,,,0.00,WUHU21636XXSP,2013-01-07 17:42:00,
2013-01-07 11:47:00,43.5,29.1,30.29,SSW,202,6.2,18.7,57,0.00,,,0.00,WUHU21636XXSP,2013-01-07 17:47:00,
2013-01-07 11:52:00,43.9,30.0,30.29,SW,225,7.1,16.5,58,0.00,,,0.00,WUHU21636XXSP,2013-01-07 17:52:00,
2013-01-07 11:57:00,44.8,29.8,30.29,ESE,112,7.8,15.6,56,0.00,,,0.00,WUHU21636XXSP,2013-01-07 17:57:00,
2013-01-07 12:02:00,44.4,30.0,30.28,SW,225,7.3,15.8,57,0.00,,,0.00,WUHU21636XXSP,2013-01-07 18:02:00,
2013-01-07 12:07:00,44.4,29.7,30.28,SSE,157,7.3,16.3,56,0.00,,,0.00,WUHU21636XXSP,2013-01-07 18:07:00,
2013-01-07 12:12:00,43.5,29.1,30.27,SW,225,11.8,25.0,57,0.00,,,0.00,WUHU21636XXSP,2013-01-07 18:12:00,
2013-01-07 12:17:00,42.8,28.9,30.27,SSE,157,10.0,25.0,58,0.00,,,0.00,WUHU21636XXSP,2013-01-07 18:17:00,
2013-01-07 12:22:00,44.2,30.4,30.27,ESE,112,3.5,20.8,58,0.00,,,0.00,WUHU21636XXSP,2013-01-07 18:22:00,
2013-01-07 12:27:00,43.3,29.8,30.26,SW,225,10.0,19.2,59,0.00,,,0.00,WUHU21636XXSP,2013-01-07 18:27:00,
2013-01-07 12:32:00,43.2,28.8,30.26,SSE,157,7.8,19.2,57,0.00,,,0.00,WUHU21636XXSP,2013-01-07 18:32:00,
2013-01-07 12:37:00,43.3,29.8,30.26,South,180,6.9,21.0,59,0.00,,,0.00,WUHU21636XXSP,2013-01-07 18:37:00,
2013-01-07 12:42:00,42.4,28.9,30.25,SSW,202,6.4,21.0,59,0.00,,,0.00,WUHU21636XXSP,2013-01-07 18:42:00,
2013-01-07 12:47:00,44.4,30.0,30.24,SSE,157,11.4,21.2,57,0.00,,,0.00,WUHU21636XXSP,2013-01-07 18:47:00,
2013-01-07 12:52:00,42.6,29.7,30.24,SSE,157,7.8,21.2,60,0.00,,,0.00,WUHU21636XXSP,2013-01-07 18:52:00,
2013-01-07 12:57:00,44.2,30.7,30.24,SSW,202,6.9,21.2,59,0.00,,,0.00,WUHU21636XXSP,2013-01-07 18:57:00,
2013-01-07 13:02:00,43.9,29.5,30.24,SSE,157,8.9,16.5,57,0.00,,,0.00,WUHU21636XXSP,2013-01-07 19:02:00,
2013-01-07 13:07:00,44.2,29.5,30.24,South,180,5.3,20.1,56,0.00,,,0.00,WUHU21636XXSP,2013-01-07 19:07:00,
2013-01-07 13:12:00,44.2,30.4,30.24,SSE,157,3.8,20.1,58,0.00,,,0.00,WUHU21636XXSP,2013-01-07 19:12:00,
2013-01-07 13:17:00,44.8,29.8,30.24,SW,225,4.2,14.9,56,0.00,,,0.00,WUHU21636XXSP,2013-01-07 19:17:00,
2013-01-07 13:22:00,43.3,29.5,30.24,SSE,157,4.6,18.1,58,0.00,,,0.00,WUHU21636XXSP,2013-01-07 19:22:00,
2013-01-07 13:27:00,44.8,30.7,30.23,SSE,157,5.1,18.1,58,0.00,,,0.00,WUHU21636XXSP,2013-01-07 19:27:00,
2013-01-07 13:32:00,45.3,30.4,30.22,SSW,202,4.6,15.4,56,0.00,,,0.00,WUHU21636XXSP,2013-01-07 19:32:00,
2013-01-07 13:37:00,43.3,29.8,30.22,SSE,157,8.5,14.3,59,0.00,,,0.00,WUHU21636XXSP,2013-01-07 19:37:00,
2013-01-07 13:42:00,44.1,30.2,30.22,SSW,202,3.5,17.0,58,0.00,,,0.00,WUHU21636XXSP,2013-01-07 19:42:00,
2013-01-07 13:47:00,43.3,30.4,30.22,SSW,202,2.2,17.0,60,0.00,,,0.00,WUHU21636XXSP,2013-01-07 19:47:00,
2013-01-07 13:52:00,40.6,29.3,30.22,SSW,202,9.6,17.6,64,0.00,,,0.00,WUHU21636XXSP,2013-01-07 19:52:00,
2013-01-07 13:57:00,40.6,29.3,30.22,South,180,2.2,17.8,64,0.00,,,0.00,WUHU21636XXSP,2013-01-07 19:57:00,
2013-01-07 14:02:00,40.8,29.8,30.21,SSW,202,2.2,17.8,65,0.00,,,0.00,WUHU21636XXSP,2013-01-07 20:02:00,
2013-01-07 14:07:00,40.8,29.8,30.22,SSE,157,2.9,15.4,65,0.00,,,0.00,WUHU21636XXSP,2013-01-07 20:07:00,
2013-01-07 14:12:00,41.2,30.6,30.22,SSW,202,2.9,15.4,66,0.00,,,0.00,WUHU21636XXSP,2013-01-07 20:12:00,
2013-01-07 14:17:00,40.8,29.8,30.22,South,180,3.3,17.0,65,0.00,,,0.00,WUHU21636XXSP,2013-01-07 20:17:00,
2013-01-07 14:19:00,40.8,29.8,30.22,SSW,202,6.7,17.0,65,0.00,,,0.00,WUHU21636XXSP,2013-01-07 20:19:00,
2013-01-07 14:24:00,40.6,29.7,30.22,SSW,202,3.5,13.4,65,0.00,,,0.00,WUHU21636XXSP,2013-01-07 20:24:00,
2013-01-07 14:29:00,40.8,29.8,30.21,South,180,4.0,14.3,65,0.00,,,0.00,WUHU21636XXSP,2013-01-07 20:29:00,
2013-01-07 14:34:00,40.6,29.3,30.21,SSW,202,9.1,16.3,64,0.00,,,0.00,WUHU21636XXSP,2013-01-07 20:34:00,
2013-01-07 14:39:00,40.3,28.9,30.21,SW,225,10.5,23.0,64,0.00,,,0.00,WUHU21636XXSP,2013-01-07 20:39:00,
2013-01-07 14:44:00,40.3,29.3,30.21,SSW,202,3.3,23.0,65,0.00,,,0.00,WUHU21636XXSP,2013-01-07 20:44:00,
2013-01-07 14:49:00,40.6,29.3,30.21,SSW,202,3.1,14.5,64,0.00,,,0.00,WUHU21636XXSP,2013-01-07 20:49:00,
2013-01-07 14:54:00,40.3,29.3,30.20,South,180,6.0,16.3,65,0.00,,,0.00,WUHU21636XXSP,2013-01-07 20:54:00,
2013-01-07 14:59:00,40.3,29.3,30.20,SSW,202,5.1,16.3,65,0.00,,,0.00,WUHU21636XXSP,2013-01-07 20:59:00,
2013-01-07 15:04:00,40.6,30.0,30.20,South,180,5.5,13.4,66,0.00,,,0.00,WUHU21636XXSP,2013-01-07 21:04:00,
2013-01-07 15:09:00,40.6,30.0,30.19,SW,225,5.3,13.4,66,0.00,,,0.00,WUHU21636XXSP,2013-01-07 21:09:00,
2013-01-07 15:14:00,40.1,29.5,30.19,SSW,202,10.7,20.1,66,0.00,,,0.00,WUHU21636XXSP,2013-01-07 21:14:00,
2013-01-07 15:19:00,39.7,29.1,30.19,SSE,157,6.0,20.1,66,0.00,,,0.00,WUHU21636XXSP,2013-01-07 21:19:00,
2013-01-07 15:24:00,39.4,29.1,30.19,SSE,157,8.7,19.2,67,0.00,,,0.00,WUHU21636XXSP,2013-01-07 21:24:00,
2013-01-07 15:29:00,39.7,29.5,30.19,WSW,247,10.7,18.5,67,0.00,,,0.00,WUHU21636XXSP,2013-01-07 21:29:00,
2013-01-07 15:34:00,39.7,29.5,30.18,South,180,10.2,15.8,67,0.00,,,0.00,WUHU21636XXSP,2013-01-07 21:34:00,
2013-01-07 15:39:00,39.7,29.5,30.18,South,180,14.3,21.9,67,0.00,,,0.00,WUHU21636XXSP,2013-01-07 21:39:00,
2013-01-07 15:44:00,39.6,29.7,30.17,South,180,3.1,26.3,68,0.00,,,0.00,WUHU21636XXSP,2013-01-07 21:44:00,
2013-01-07 15:49:00,39.4,29.5,30.17,SSW,202,10.0,26.3,68,0.00,,,0.00,WUHU21636XXSP,2013-01-07 21:49:00,
2013-01-07 15:54:00,39.2,29.3,30.17,SSE,157,8.0,23.0,68,0.00,,,0.00,WUHU21636XXSP,2013-01-07 21:54:00,
2013-01-07 15:59:00,39.0,29.1,30.18,SSE,157,7.6,23.0,68,0.00,,,0.00,WUHU21636XXSP,2013-01-07 21:59:00,
2013-01-07 16:04:00,38.8,29.1,30.18,SSW,202,4.4,18.1,68,0.00,,,0.00,WUHU21636XXSP,2013-01-07 22:04:00,
2013-01-07 16:09:00,38.5,29.1,30.18,South,180,3.1,18.1,69,0.00,,,0.00,WUHU21636XXSP,2013-01-07 22:09:00,
2013-01-07 16:14:00,38.1,29.1,30.17,SSE,157,4.6,10.0,70,0.00,,,0.00,WUHU21636XXSP,2013-01-07 22:14:00,
2013-01-07 16:19:00,37.9,28.9,30.17,SSW,202,8.9,15.8,70,0.00,,,0.00,WUHU21636XXSP,2013-01-07 22:19:00,
2013-01-07 16:24:00,37.6,28.6,30.18,SE,135,5.8,15.8,70,0.00,,,0.00,WUHU21636XXSP,2013-01-07 22:24:00,
2013-01-07 16:29:00,37.6,28.9,30.18,South,180,2.9,18.5,71,0.00,,,0.00,WUHU21636XXSP,2013-01-07 22:29:00,
2013-01-07 16:34:00,37.2,28.6,30.18,SSE,157,5.3,18.5,71,0.00,,,0.00,WUHU21636XXSP,2013-01-07 22:34:00,
2013-01-07 16:39:00,37.2,28.6,30.19,South,180,4.6,15.4,71,0.00,,,0.00,WUHU21636XXSP,2013-01-07 22:39:00,
2013-01-07 16:44:00,37.0,28.8,30.18,SSW,202,2.6,15.4,72,0.00,,,0.00,WUHU21636XXSP,2013-01-07 22:44:00,
2013-01-07 16:49:00,36.7,28.4,30.18,South,180,3.8,4.2,72,0.00,,,0.00,WUHU21636XXSP,2013-01-07 22:49:00,
2013-01-07 16:54:00,36.7,28.4,30.18,South,180,3.1,6.4,72,0.00,,,0.00,WUHU21636XXSP,2013-01-07 22:54:00,
2013-01-07 16:59:00,36.3,28.4,30.18,SSW,202,8.2,8.7,73,0.00,,,0.00,WUHU21636XXSP,2013-01-07 22:59:00,
2013-01-07 17:04:00,36.1,28.2,30.18,South,180,0.0,10.0,74,0.00,,,0.00,WUHU21636XXSP,2013-01-07 23:04:00,
2013-01-07 17:09:00,36.1,28.6,30.18,SW,225,1.1,10.0,74,0.00,,,0.00,WUHU21636XXSP,2013-01-07 23:09:00,
2013-01-07 17:14:00,36.0,28.4,30.18,SSE,157,1.1,8.9,75,0.00,,,0.00,WUHU21636XXSP,2013-01-07 23:14:00,
2013-01-07 17:19:00,35.6,28.4,30.18,South,180,3.5,10.5,76,0.00,,,0.00,WUHU21636XXSP,2013-01-07 23:19:00,
2013-01-07 17:24:00,35.6,28.6,30.18,South,180,4.6,14.3,76,0.00,,,0.00,WUHU21636XXSP,2013-01-07 23:24:00,
2013-01-07 17:29:00,35.6,28.6,30.18,South,180,8.9,15.8,76,0.00,,,0.00,WUHU21636XXSP,2013-01-07 23:29:00,
2013-01-07 17:34:00,35.4,28.4,30.17,South,180,7.6,15.8,76,0.00,,,0.00,WUHU21636XXSP,2013-01-07 23:34:00,
2013-01-07 17:39:00,35.2,28.2,30.18,SSE,157,5.1,14.5,76,0.00,,,0.00,WUHU21636XXSP,2013-01-07 23:39:00,
2013-01-07 17:44:00,35.2,28.6,30.17,North,0,2.9,14.7,77,0.00,,,0.00,WUHU21636XXSP,2013-01-07 23:44:00,
2013-01-07 17:49:00,35.1,28.4,30.17,SSE,157,4.2,14.7,77,0.00,,,0.00,WUHU21636XXSP,2013-01-07 23:49:00,
2013-01-07 17:54:00,34.9,28.2,30.17,SSE,157,3.3,12.9,77,0.00,,,0.00,WUHU21636XXSP,2013-01-07 23:54:00,
2013-01-07 17:59:00,34.7,28.0,30.17,South,180,4.0,15.4,77,0.00,,,0.00,WUHU21636XXSP,2013-01-07 23:59:00,
2013-01-07 18:04:00,34.7,28.0,30.17,SSE,157,3.1,15.4,77,0.00,,,0.00,WUHU21636XXSP,2013-01-08 00:04:00,
2013-01-07 18:09:00,34.7,28.0,30.16,SSE,157,6.9,16.5,77,0.00,,,0.00,WUHU21636XXSP,2013-01-08 00:09:00,
2013-01-07 18:14:00,34.9,28.2,30.16,SSW,202,2.0,16.5,77,0.00,,,0.00,WUHU21636XXSP,2013-01-08 00:14:00,
2013-01-07 18:19:00,34.7,28.0,30.16,South,180,5.5,15.8,77,0.00,,,0.00,WUHU21636XXSP,2013-01-08 00:19:00,
2013-01-07 18:24:00,34.7,28.0,30.16,SSE,157,3.8,14.0,77,0.00,,,0.00,WUHU21636XXSP,2013-01-08 00:24:00,
2013-01-07 18:29:00,34.7,28.0,30.16,South,180,5.5,10.5,77,0.00,,,0.00,WUHU21636XXSP,2013-01-08 00:29:00,
2013-01-07 18:34:00,34.9,28.2,30.17,SSW,202,6.0,17.4,77,0.00,,,0.00,WUHU21636XXSP,2013-01-08 00:34:00,
2013-01-07 18:39:00,34.9,28.2,30.16,SSW,202,4.0,17.4,77,0.00,,,0.00,WUHU21636XXSP,2013-01-08 00:39:00,
2013-01-07 18:44:00,34.9,27.9,30.16,South,180,5.5,16.1,76,0.00,,,0.00,WUHU21636XXSP,2013-01-08 00:44:00,
2013-01-07 18:49:00,34.9,27.9,30.16,South,180,4.6,16.1,76,0.00,,,0.00,WUHU21636XXSP,2013-01-08 00:49:00,
2013-01-07 18:54:00,34.7,28.0,30.16,South,180,6.7,14.0,77,0.00,,,0.00,WUHU21636XXSP,2013-01-08 00:54:00,
2013-01-07 18:59:00,34.5,27.9,30.16,South,180,7.8,18.1,77,0.00,,,0.00,WUHU21636XXSP,2013-01-08 00:59:00,
2013-01-07 19:04:00,34.7,28.0,30.16,South,180,6.0,18.1,77,0.00,,,0.00,WUHU21636XXSP,2013-01-08 01:04:00,
2013-01-07 19:09:00,34.5,27.9,30.16,SSE,157,3.1,17.8,77,0.00,,,0.00,WUHU21636XXSP,2013-01-08 01:09:00,
2013-01-07 19:14:00,34.7,28.0,30.15,SSE,157,2.6,17.6,77,0.00,,,0.00,WUHU21636XXSP,2013-01-08 01:14:00,
2013-01-07 19:19:00,34.7,28.0,30.16,South,180,8.0,17.6,77,0.00,,,0.00,WUHU21636XXSP,2013-01-08 01:19:00,
2013-01-07 19:24:00,34.5,27.9,30.16,WSW,247,3.5,12.5,77,0.00,,,0.00,WUHU21636XXSP,2013-01-08 01:24:00,
2013-01-07 19:29:00,34.7,28.0,30.15,ESE,112,4.2,13.4,77,0.00,,,0.00,WUHU21636XXSP,2013-01-08 01:29:00,
2013-01-07 19:34:00,34.9,27.9,30.16,South,180,4.4,17.8,76,0.00,,,0.00,WUHU21636XXSP,2013-01-08 01:34:00,
2013-01-07 19:39:00,34.7,27.7,30.16,South,180,3.8,17.8,76,0.00,,,0.00,WUHU21636XXSP,2013-01-08 01:39:00,
2013-01-07 19:44:00,35.1,27.9,30.16,SSW,202,6.9,12.9,75,0.00,,,0.00,WUHU21636XXSP,2013-01-08 01:44:00,
2013-01-07 19:49:00,35.2,28.0,30.16,South,180,7.8,20.1,75,0.00,,,0.00,WUHU21636XXSP,2013-01-08 01:49:00,
2013-01-07 19:54:00,35.2,28.0,30.16,South,180,8.9,20.3,75,0.00,,,0.00,WUHU21636XXSP,2013-01-08 01:54:00,
2013-01-07 19:59:00,35.1,27.9,30.15,SSW,202,4.6,20.3,75,0.00,,,0.00,WUHU21636XXSP,2013-01-08 01:59:00,
2013-01-07 20:04:00,35.1,27.9,30.15,SSE,157,7.1,16.3,75,0.00,,,0.00,WUHU21636XXSP,2013-01-08 02:04:00,
2013-01-07 20:09:00,34.9,27.7,30.15,South,180,5.8,16.3,75,0.00,,,0.00,WUHU21636XXSP,2013-01-08 02:09:00,
2013-01-07 20:14:00,34.9,27.7,30.14,SSE,157,7.6,14.7,75,0.00,,,0.00,WUHU21636XXSP,2013-01-08 02:14:00,
2013-01-07 20:19:00,34.9,27.7,30.14,SSE,157,4.2,12.3,75,0.00,,,0.00,WUHU21636XXSP,2013-01-08 02:19:00,
2013-01-07 20:24:00,35.1,27.9,30.15,South,180,6.2,17.2,75,0.00,,,0.00,WUHU21636XXSP,2013-01-08 02:24:00,
2013-01-07 20:29:00,35.2,27.7,30.16,South,180,4.4,17.2,74,0.00,,,0.00,WUHU21636XXSP,2013-01-08 02:29:00,
2013-01-07 20:34:00,35.1,27.5,30.15,SSW,202,4.2,13.6,74,0.00,,,0.00,WUHU21636XXSP,2013-01-08 02:34:00,
2013-01-07 20:39:00,35.2,27.7,30.15,SSE,157,4.2,11.8,74,0.00,,,0.00,WUHU21636XXSP,2013-01-08 02:39:00,
2013-01-07 20:44:00,34.9,27.3,30.15,South,180,2.2,11.8,74,0.00,,,0.00,WUHU21636XXSP,2013-01-08 02:44:00,
2013-01-07 20:49:00,35.1,27.5,30.15,South,180,6.0,15.6,74,0.00,,,0.00,WUHU21636XXSP,2013-01-08 02:49:00,
2013-01-07 20:54:00,35.2,27.7,30.15,South,180,3.8,16.5,74,0.00,,,0.00,WUHU21636XXSP,2013-01-08 02:54:00,
2013-01-07 20:59:00,35.2,27.7,30.15,SSE,157,4.0,16.5,74,0.00,,,0.00,WUHU21636XXSP,2013-01-08 02:59:00,
2013-01-07 21:04:00,34.9,27.3,30.16,SSW,202,3.8,8.0,74,0.00,,,0.00,WUHU21636XXSP,2013-01-08 03:04:00,
2013-01-07 21:09:00,34.9,27.3,30.15,WSW,247,3.3,12.0,74,0.00,,,0.00,WUHU21636XXSP,2013-01-08 03:09:00,
2013-01-07 21:14:00,34.7,27.5,30.15,South,180,8.9,12.0,75,0.00,,,0.00,WUHU21636XXSP,2013-01-08 03:14:00,
2013-01-07 21:19:00,34.9,27.7,30.15,South,180,2.4,11.8,75,0.00,,,0.00,WUHU21636XXSP,2013-01-08 03:19:00,
2013-01-07 21:24:00,34.7,27.5,30.15,SSW,202,3.5,14.9,75,0.00,,,0.00,WUHU21636XXSP,2013-01-08 03:24:00,
2013-01-07 21:29:00,34.7,27.5,30.14,South,180,1.7,14.9,75,0.00,,,0.00,WUHU21636XXSP,2013-01-08 03:29:00,
2013-01-07 21:34:00,34.5,27.3,30.14,South,180,0.0,11.4,75,0.00,,,0.00,WUHU21636XXSP,2013-01-08 03:34:00,
2013-01-07 21:39:00,34.7,27.5,30.14,South,180,3.3,9.8,75,0.00,,,0.00,WUHU21636XXSP,2013-01-08 03:39:00,
2013-01-07 21:44:00,34.7,27.5,30.14,South,180,2.0,16.1,75,0.00,,,0.00,WUHU21636XXSP,2013-01-08 03:44:00,
2013-01-07 21:49:00,34.5,27.3,30.14,SSW,202,2.9,16.1,75,0.00,,,0.00,WUHU21636XXSP,2013-01-08 03:49:00,
2013-01-07 21:54:00,34.9,27.7,30.14,SSE,157,2.6,9.6,75,0.00,,,0.00,WUHU21636XXSP,2013-01-08 03:54:00,
2013-01-07 21:59:00,34.9,27.7,30.14,South,180,4.9,9.6,75,0.00,,,0.00,WUHU21636XXSP,2013-01-08 03:59:00,
2013-01-07 22:04:00,34.9,27.7,30.14,South,180,3.1,12.5,75,0.00,,,0.00,WUHU21636XXSP,2013-01-08 04:04:00,
2013-01-07 22:09:00,35.1,27.5,30.14,SSE,157,6.4,12.5,74,0.00,,,0.00,WUHU21636XXSP,2013-01-08 04:09:00,
2013-01-07 22:14:00,34.9,27.3,30.14,SSE,157,3.3,7.1,74,0.00,,,0.00,WUHU21636XXSP,2013-01-08 04:14:00,
2013-01-07 22:19:00,35.1,27.5,30.15,South,180,6.4,7.8,74,0.00,,,0.00,WUHU21636XXSP,2013-01-08 04:19:00,
2013-01-07 22:24:00,35.2,27.7,30.15,SSW,202,5.5,12.7,74,0.00,,,0.00,WUHU21636XXSP,2013-01-08 04:24:00,
2013-01-07 22:29:00,34.9,27.3,30.15,WSW,247,4.0,12.7,74,0.00,,,0.00,WUHU21636XXSP,2013-01-08 04:29:00,
2013-01-07 22:34:00,34.7,27.5,30.15,South,180,3.8,10.2,75,0.00,,,0.00,WUHU21636XXSP,2013-01-08 04:34:00,
2013-01-07 22:39:00,34.9,27.3,30.15,SSW,202,0.0,8.9,74,0.00,,,0.00,WUHU21636XXSP,2013-01-08 04:39:00,
2013-01-07 22:44:00,34.7,27.1,30.15,SSW,202,2.2,8.9,74,0.00,,,0.00,WUHU21636XXSP,2013-01-08 04:44:00,
2013-01-07 22:49:00,34.5,27.3,30.15,SSW,202,3.1,7.3,75,0.00,,,0.00,WUHU21636XXSP,2013-01-08 04:49:00,
2013-01-07 22:54:00,34.9,27.3,30.15,South,180,3.3,8.2,74,0.00,,,0.00,WUHU21636XXSP,2013-01-08 04:54:00,
2013-01-07 22:59:00,34.9,27.3,30.15,South,180,4.6,10.5,74,0.00,,,0.00,WUHU21636XXSP,2013-01-08 04:59:00,
2013-01-07 23:00:00,34.9,27.3,30.15,South,180,4.6,10.5,74,0.00,,,0.00,WUHU21636XXSP,2013-01-08 05:00:00,
2013-01-07 23:01:00,34.9,27.3,30.15,South,180,4.6,10.5,74,0.00,,,0.00,WUHU21636XXSP,2013-01-08 05:01:00,
2013-01-07 23:02:00,34.9,27.3,30.15,South,180,4.6,10.5,74,0.00,,,0.00,WUHU21636XXSP,2013-01-08 05:02:00,
2013-01-07 23:07:00,34.5,27.0,30.14,South,180,3.1,8.7,74,0.00,,,0.00,WUHU21636XXSP,2013-01-08 05:07:00,
2013-01-07 23:12:00,34.5,27.3,30.15,SSE,157,1.5,11.8,75,0.00,,,0.00,WUHU21636XXSP,2013-01-08 05:12:00,
2013-01-07 23:17:00,34.5,27.3,30.14,South,180,5.3,11.8,75,0.00,,,0.00,WUHU21636XXSP,2013-01-08 05:17:00,
2013-01-07 23:22:00,34.3,27.1,30.14,SSW,202,2.9,12.0,75,0.00,,,0.00,WUHU21636XXSP,2013-01-08 05:22:00,
2013-01-07 23:27:00,34.2,27.1,30.14,South,180,3.5,12.0,76,0.00,,,0.00,WUHU21636XXSP,2013-01-08 05:27:00,
2013-01-07 23:32:00,34.2,27.1,30.14,SSE,157,0.4,10.9,76,0.00,,,0.00,WUHU21636XXSP,2013-01-08 05:32:00,
2013-01-07 23:37:00,34.0,27.0,30.14,South,180,4.2,8.9,76,0.00,,,0.00,WUHU21636XXSP,2013-01-08 05:37:00,
2013-01-07 23:42:00,34.0,27.0,30.14,SSW,202,3.1,8.9,76,0.00,,,0.00,WUHU21636XXSP,2013-01-08 05:42:00,
2013-01-07 23:47:00,33.6,26.6,30.14,South,180,0.6,4.2,77,0.00,,,0.00,WUHU21636XXSP,2013-01-08 05:47:00,
2013-01-07 23:52:00,33.4,26.8,30.14,SSW,202,3.8,3.8,77,0.00,,,0.00,WUHU21636XXSP,2013-01-08 05:52:00,
2013-01-07 23:57:00,33.4,26.8,30.14,South,180,4.9,10.7,77,0.00,,,0.00,WUHU21636XXSP,2013-01-08 05:57:00,